TimeEDT,TemperatureF,Dew PointF,Humidity,Sea Level PressureIn,VisibilityMPH,Wind Direction,Wind SpeedMPH,Gust SpeedMPH,PrecipitationIn,Events,Conditions,WindDirDegrees,DateUTC
12:51 AM,36.0,34.0,93,30.15,10.0,Calm,Calm,-,N/A,,Clear,0,2011-10-30 04:51:00
1:51 AM,35.1,34.0,96,30.16,7.0,Calm,Calm,-,N/A,,Clear,0,2011-10-30 05:51:00
2:51 AM,33.1,32.0,96,30.17,4.0,Calm,Calm,-,N/A,,Clear,0,2011-10-30 06:51:00
3:14 AM,30.2,30.2,100,30.16,1.8,Calm,Calm,-,N/A,,Clear,0,2011-10-30 07:14:00
3:43 AM,30.2,30.2,100,30.16,4.0,Calm,Calm,-,N/A,,Clear,0,2011-10-30 07:43:00
3:51 AM,30.0,28.9,96,30.17,4.0,East,3.5,-,N/A,,Clear,100,2011-10-30 07:51:00
4:04 AM,30.2,28.4,93,30.16,2.5,Calm,Calm,-,N/A,,Clear,0,2011-10-30 08:04:00
4:13 AM,30.2,30.2,100,30.16,4.0,Calm,Calm,-,N/A,,Clear,0,2011-10-30 08:13:00
4:39 AM,30.2,30.2,100,30.17,1.8,Calm,Calm,-,N/A,,Clear,0,2011-10-30 08:39:00
4:46 AM,30.2,28.4,93,30.17,6.0,Calm,Calm,-,N/A,,Clear,0,2011-10-30 08:46:00
4:51 AM,30.0,28.9,96,30.19,6.0,Calm,Calm,-,N/A,,Clear,0,2011-10-30 08:51:00
5:51 AM,28.9,28.0,96,30.21,6.0,Calm,Calm,-,N/A,,Clear,0,2011-10-30 09:51:00
6:51 AM,30.0,28.0,92,30.23,6.0,Calm,Calm,-,N/A,,Clear,0,2011-10-30 10:51:00
7:51 AM,28.0,27.0,96,30.25,5.0,Calm,Calm,-,N/A,,Clear,0,2011-10-30 11:51:00
8:51 AM,30.0,30.0,100,30.29,5.0,Calm,Calm,-,N/A,,Clear,0,2011-10-30 12:51:00
9:51 AM,37.0,35.1,93,30.30,5.0,Calm,Calm,-,N/A,,Clear,0,2011-10-30 13:51:00
10:51 AM,42.1,36.0,79,30.30,10.0,Calm,Calm,-,0.01,,Clear,0,2011-10-30 14:51:00
11:51 AM,46.9,37.0,68,30.30,10.0,SW,4.6,-,N/A,,Clear,220,2011-10-30 15:51:00
12:51 PM,51.1,36.0,56,30.29,10.0,South,4.6,-,N/A,,Clear,170,2011-10-30 16:51:00
1:51 PM,54.0,33.1,45,30.26,10.0,SSW,5.8,-,N/A,,Partly Cloudy,210,2011-10-30 17:51:00
2:51 PM,55.9,28.9,36,30.23,10.0,WSW,6.9,-,N/A,,Partly Cloudy,240,2011-10-30 18:51:00
3:51 PM,55.0,28.0,35,30.22,10.0,Variable,4.6,-,N/A,,Clear,0,2011-10-30 19:51:00
4:51 PM,54.0,28.9,38,30.22,10.0,SSW,4.6,-,N/A,,Clear,210,2011-10-30 20:51:00
5:51 PM,52.0,30.0,43,30.21,10.0,South,3.5,-,N/A,,Clear,190,2011-10-30 21:51:00
6:51 PM,52.0,27.0,38,30.21,10.0,Calm,Calm,-,N/A,,Clear,0,2011-10-30 22:51:00
7:51 PM,48.0,32.0,54,30.21,10.0,East,3.5,-,N/A,,Clear,90,2011-10-30 23:51:00
8:51 PM,45.0,33.1,63,30.21,10.0,East,4.6,-,N/A,,Clear,90,2011-10-31 00:51:00
9:51 PM,42.1,34.0,73,30.21,10.0,Calm,Calm,-,N/A,,Clear,0,2011-10-31 01:51:00
10:51 PM,41.0,34.0,76,30.21,10.0,Calm,Calm,-,N/A,,Clear,0,2011-10-31 02:51:00
11:51 PM,37.9,34.0,86,30.20,10.0,Calm,Calm,-,N/A,,Clear,0,2011-10-31 03:51:00